| time (UTC) | temp F | wind direction | speed knots | gust knots | rain 1hr in | rain 24hr in | rain mn in | humidity % | barometer mb |
| 20260506051001 | 48 | 359 | 1.7 | 2.6 | 0.00 | 0.00 | 0.00 | 93 | 1014.2 |
| 20260506045001 | 48 | 352 | 1.7 | 2.6 | 0.00 | 0.00 | 0.00 | 94 | 1014.2 |
| 20260506044001 | 49 | 11 | 2.6 | 4.3 | 0.00 | 0.00 | 0.00 | 93 | 1014.3 |
| 20260506043000 | 49 | 3 | 1.7 | 2.6 | 0.00 | 0.00 | 0.00 | 93 | 1014.3 |
| 20260506042001 | 49 | 38 | 1.7 | 3.5 | 0.00 | 0.00 | 0.00 | 93 | 1014.3 |
| 20260506041000 | 49 | 17 | 0.9 | 2.6 | 0.00 | 0.00 | 0.00 | 93 | 1014.4 |
| 20260506040000 | 49 | 313 | 1.7 | 2.6 | 0.00 | 0.00 | 0.00 | 93 | 1014.5 |
| 20260506035000 | 48 | 324 | 1.7 | 4.3 | 0.00 | 0.00 | 0.00 | 93 | 1014.5 |
| 20260506034000 | 48 | 318 | 1.7 | 3.5 | 0.00 | 0.00 | 0.00 | 93 | 1014.5 |
| 20260506033000 | 48 | 343 | 1.7 | 2.6 | 0.00 | 0.00 | 0.00 | 92 | 1014.6 |
| 20260506032000 | 49 | 16 | 1.7 | 3.5 | 0.00 | 0.00 | 0.00 | 92 | 1014.7 |
| 20260506031000 | 49 | 48 | 0.9 | 1.7 | 0.00 | 0.00 | 0.00 | 92 | 1014.7 |
| 20260506030000 | 49 | 322 | 0.9 | 2.6 | 0.00 | 0.00 | 0.00 | 92 | 1014.7 |
| 20260506025000 | 49 | 314 | 0.9 | 1.7 | 0.00 | 0.00 | 0.00 | 92 | 1014.7 |
| 20260506024000 | 49 | 322 | 1.7 | 3.5 | 0.00 | 0.00 | 0.00 | 91 | 1014.7 |
| 20260506023000 | 49 | 293 | 2.6 | 4.3 | 0.00 | 0.00 | 0.00 | 91 | 1014.7 |
| 20260506022000 | 49 | 295 | 2.6 | 3.5 | 0.00 | 0.00 | 0.00 | 91 | 1014.8 |
| 20260506021000 | 49 | 296 | 2.6 | 3.5 | 0.00 | 0.00 | 0.00 | 91 | 1014.8 |
| 20260506020000 | 49 | 289 | 3.5 | 4.3 | 0.00 | 0.00 | 0.00 | 91 | 1014.8 |
| 20260506015000 | 49 | 292 | 2.6 | 4.3 | 0.00 | 0.00 | 0.00 | 90 | 1014.9 |
| 20260506014000 | 49 | 296 | 3.5 | 5.2 | 0.00 | 0.00 | 0.00 | 90 | 1014.9 |
| 20260506013000 | 49 | 298 | 3.5 | 4.3 | 0.00 | 0.00 | 0.00 | 90 | 1015.0 |
| 20260506012000 | 49 | 295 | 2.6 | 4.3 | 0.00 | 0.00 | 0.00 | 90 | 1015.1 |
| 20260506011004 | 49 | 294 | 3.5 | 4.3 | 0.00 | 0.00 | 0.00 | 89 | 1015.1 |
| 20260506010004 | 49 | 295 | 3.5 | 4.3 | 0.00 | 0.00 | 0.00 | 89 | 1015.2 |
| 20260506005003 | 49 | 294 | 3.5 | 4.3 | 0.00 | 0.00 | 0.00 | 88 | 1015.2 |
| 20260506004003 | 49 | 299 | 2.6 | 3.5 | 0.00 | 0.00 | 0.00 | 88 | 1015.2 |
| 20260506003003 | 49 | 293 | 3.5 | 4.3 | 0.00 | 0.00 | 0.00 | 87 | 1015.2 |
| 20260506002004 | 49 | 288 | 2.6 | 4.3 | 0.00 | 0.00 | 0.00 | 87 | 1015.2 |
| 20260506000952 | 50 | 288 | 3.5 | 4.3 | 0.00 | 0.00 | 0.00 | 86 | 1015.2 |
| 20260505235952 | 50 | 291 | 2.6 | 3.5 | 0.00 | 0.00 | 0.00 | 85 | 1015.3 |
| 20260505234952 | 50 | 284 | 1.7 | 2.6 | 0.00 | 0.00 | 0.00 | 84 | 1015.3 |
| 20260505233952 | 50 | 291 | 1.7 | 1.7 | 0.00 | 0.00 | 0.00 | 82 | 1015.3 |
| 20260505232952 | 50 | 286 | 0.9 | 1.7 | 0.00 | 0.00 | 0.00 | 80 | 1015.3 |
| 20260505231952 | 50 | 323 | 0.9 | 0.9 | 0.00 | 0.00 | 0.00 | 78 | 1015.4 |
| 20260505230952 | 51 | 152 | 0.9 | 0.9 | 0.00 | 0.00 | 0.00 | 79 | 1015.5 |
| 20260505225952 | 51 | 211 | 0.0 | 0.9 | 0.00 | 0.00 | 0.00 | 79 | 1015.6 |
| 20260505224952 | 51 | 67 | 0.9 | 1.7 | 0.00 | 0.00 | 0.00 | 79 | 1015.6 |
| 20260505223952 | 51 | 47 | 0.9 | 1.7 | 0.00 | 0.00 | 0.00 | 79 | 1015.7 |
| 20260505222952 | 51 | 50 | 1.7 | 2.6 | 0.00 | 0.00 | 0.00 | 79 | 1015.8 |
| 20260505221952 | 51 | 68 | 1.7 | 4.3 | 0.00 | 0.00 | 0.00 | 79 | 1015.8 |
| 20260505220952 | 51 | 90 | 1.7 | 3.5 | 0.00 | 0.00 | 0.00 | 80 | 1015.9 |
| 20260505215952 | 51 | 58 | 2.6 | 4.3 | 0.00 | 0.00 | 0.00 | 82 | 1015.9 |
| 20260505214952 | 51 | 58 | 2.6 | 5.2 | 0.00 | 0.00 | 0.00 | 82 | 1015.9 |
| 20260505213952 | 51 | 71 | 2.6 | 5.2 | 0.00 | 0.00 | 0.00 | 83 | 1015.8 |
| 20260505212952 | 51 | 93 | 2.6 | 5.2 | 0.00 | 0.00 | 0.00 | 84 | 1015.9 |
| 20260505211952 | 51 | 134 | 1.7 | 3.5 | 0.00 | 0.00 | 0.00 | 84 | 1015.9 |
| 20260505210951 | 51 | 136 | 2.6 | 4.3 | 0.00 | 0.00 | 0.00 | 84 | 1015.9 |
| 20260505205951 | 51 | 134 | 2.6 | 5.2 | 0.00 | 0.00 | 0.00 | 86 | 1015.9 |
| 20260505204951 | 51 | 138 | 2.6 | 4.3 | 0.00 | 0.00 | 0.00 | 87 | 1015.9 |
| 20260505203951 | 51 | 131 | 2.6 | 4.3 | 0.00 | 0.00 | 0.00 | 86 | 1015.9 |
| 20260505202951 | 51 | 139 | 2.6 | 4.3 | 0.00 | 0.00 | 0.00 | 84 | 1015.9 |
| 20260505201951 | 51 | 110 | 1.7 | 4.3 | 0.00 | 0.00 | 0.00 | 83 | 1015.9 |
| 20260505200951 | 51 | 115 | 1.7 | 4.3 | 0.00 | 0.00 | 0.00 | 82 | 1015.8 |
| 20260505195951 | 51 | 110 | 1.7 | 5.2 | 0.00 | 0.00 | 0.00 | 83 | 1015.8 |
| 20260505194951 | 51 | 126 | 2.6 | 3.5 | 0.00 | 0.00 | 0.00 | 83 | 1015.7 |
| 20260505193951 | 51 | 135 | 2.6 | 4.3 | 0.00 | 0.00 | 0.00 | 83 | 1015.6 |
| 20260505192951 | 51 | 128 | 3.5 | 6.1 | 0.00 | 0.00 | 0.00 | 82 | 1015.6 |
| 20260505191951 | 51 | 133 | 3.5 | 5.2 | 0.00 | 0.00 | 0.00 | 81 | 1015.7 |
| 20260505190951 | 51 | 133 | 3.5 | 6.1 | 0.00 | 0.00 | 0.00 | 80 | 1015.6 |
| 20260505185951 | 51 | 127 | 3.5 | 7.8 | 0.00 | 0.00 | 0.00 | 82 | 1015.5 |
| 20260505184951 | 51 | 140 | 4.3 | 7.0 | 0.00 | 0.00 | 0.00 | 83 | 1015.4 |
| 20260505183951 | 51 | 139 | 4.3 | 6.1 | 0.00 | 0.00 | 0.00 | 83 | 1015.4 |
| 20260505182951 | 51 | 129 | 3.5 | 7.8 | 0.00 | 0.00 | 0.00 | 83 | 1015.4 |
| 20260505181951 | 51 | 131 | 3.5 | 6.1 | 0.00 | 0.00 | 0.00 | 84 | 1015.5 |
| 20260505180951 | 51 | 131 | 2.6 | 7.0 | 0.00 | 0.00 | 0.00 | 87 | 1015.4 |
| 20260505175951 | 51 | 102 | 2.6 | 6.1 | 0.00 | 0.00 | 0.00 | 89 | 1015.6 |
| 20260505174951 | 52 | 119 | 2.6 | 7.0 | 0.00 | 0.00 | 0.00 | 90 | 1015.6 |
| 20260505173951 | 53 | 81 | 3.5 | 10.4 | 0.00 | 0.00 | 0.00 | 87 | 1015.6 |
| 20260505172951 | 54 | 86 | 3.5 | 7.8 | 0.00 | 0.00 | 0.00 | 79 | 1015.5 |
| 20260505171950 | 55 | 12 | 2.6 | 5.2 | 0.00 | 0.00 | 0.00 | 66 | 1015.5 |
| 20260505170950 | 55 | 353 | 3.5 | 7.8 | 0.00 | 0.00 | 0.00 | 64 | 1015.5 |
| 20260505165950 | 55 | 307 | 5.2 | 8.7 | 0.00 | 0.00 | 0.00 | 64 | 1015.5 |
| 20260505164951 | 56 | 306 | 4.3 | 7.8 | 0.00 | 0.00 | 0.00 | 64 | 1015.5 |
| 20260505163950 | 56 | 302 | 4.3 | 8.7 | 0.00 | 0.00 | 0.00 | 65 | 1015.4 |
| 20260505162950 | 56 | 289 | 5.2 | 8.7 | 0.00 | 0.00 | 0.00 | 64 | 1015.5 |
| 20260505161950 | 57 | 296 | 5.2 | 8.7 | 0.00 | 0.00 | 0.00 | 64 | 1015.4 |
| 20260505160950 | 57 | 290 | 5.2 | 9.6 | 0.00 | 0.00 | 0.00 | 63 | 1015.4 |
| 20260505152954 | 59 | 302 | 3.5 | 6.1 | 0.00 | 0.00 | 0.00 | 54 | 1015.6 |
| 20260505151954 | 59 | 356 | 2.6 | 6.1 | 0.00 | 0.00 | 0.00 | 57 | 1015.8 |
| 20260505150954 | 58 | 299 | 5.2 | 9.6 | 0.00 | 0.00 | 0.00 | 57 | 1015.7 |
| 20260505124953 | 57 | 291 | 6.1 | 12.2 | 0.00 | 0.00 | 0.00 | 60 | 1016.0 |
| 20260505123953 | 58 | 295 | 6.1 | 10.4 | 0.00 | 0.00 | 0.00 | 59 | 1016.1 |
| 20260505122953 | 58 | 332 | 2.6 | 7.8 | 0.00 | 0.00 | 0.00 | 56 | 1016.2 |
| 20260505121953 | 59 | 14 | 4.3 | 7.8 | 0.00 | 0.00 | 0.00 | 53 | 1016.1 |
| 20260505120953 | 58 | 16 | 6.1 | 9.6 | 0.00 | 0.00 | 0.00 | 53 | 1016.1 |
| 20260505115953 | 58 | 12 | 6.1 | 11.3 | 0.00 | 0.00 | 0.00 | 52 | 1016.1 |
| 20260505114953 | 59 | 28 | 5.2 | 10.4 | 0.00 | 0.00 | 0.00 | 49 | 1016.2 |
| 20260505113953 | 60 | 2 | 4.3 | 8.7 | 0.00 | 0.00 | 0.00 | 50 | 1016.1 |
| 20260505112953 | 61 | 335 | 6.1 | 14.8 | 0.00 | 0.00 | 0.00 | 46 | 1016.1 |
| 20260505111953 | 62 | 6 | 6.1 | 12.2 | 0.00 | 0.00 | 0.00 | 46 | 1016.3 |
| 20260505110953 | 61 | 322 | 4.3 | 10.4 | 0.00 | 0.00 | 0.00 | 49 | 1016.3 |
| 20260505101953 | 59 | 338 | 5.2 | 13.9 | 0.00 | 0.00 | 0.00 | 53 | 1016.4 |
| 20260505100953 | 59 | 6 | 7.0 | 13.9 | 0.00 | 0.00 | 0.00 | 54 | 1016.4 |
| 20260505095953 | 58 | 346 | 5.2 | 10.4 | 0.00 | 0.00 | 0.00 | 56 | 1016.5 |
| 20260505094953 | 57 | 331 | 4.3 | 10.4 | 0.00 | 0.00 | 0.00 | 61 | 1016.4 |
| 20260505093953 | 56 | 339 | 4.3 | 9.6 | 0.00 | 0.00 | 0.00 | 65 | 1016.5 |
| 20260505092952 | 56 | 1 | 6.1 | 10.4 | 0.00 | 0.00 | 0.00 | 64 | 1016.5 |
| 20260505091953 | 55 | 328 | 3.5 | 9.6 | 0.00 | 0.00 | 0.00 | 68 | 1016.5 |
| 20260505090952 | 55 | 10 | 4.3 | 9.6 | 0.00 | 0.00 | 0.00 | 68 | 1016.5 |
| 20260505085953 | 54 | 354 | 5.2 | 10.4 | 0.00 | 0.00 | 0.00 | 69 | 1016.4 |
| 20260505084952 | 54 | 358 | 6.1 | 13.0 | 0.00 | 0.00 | 0.00 | 71 | 1016.4 |
| 20260505083952 | 53 | 10 | 6.1 | 13.0 | 0.00 | 0.00 | 0.00 | 73 | 1016.5 |
| 20260505082952 | 53 | 8 | 4.3 | 9.6 | 0.00 | 0.00 | 0.00 | 75 | 1016.5 |
| 20260505081952 | 53 | 2 | 4.3 | 7.8 | 0.00 | 0.00 | 0.00 | 76 | 1016.5 |
| 20260505080952 | 52 | 8 | 5.2 | 10.4 | 0.00 | 0.00 | 0.00 | 77 | 1016.5 |
| 20260505075952 | 51 | 4 | 4.3 | 8.7 | 0.00 | 0.00 | 0.00 | 79 | 1016.4 |
| 20260505074952 | 51 | 2 | 5.2 | 11.3 | 0.00 | 0.00 | 0.00 | 80 | 1016.4 |
| 20260505073952 | 51 | 359 | 4.3 | 9.6 | 0.00 | 0.00 | 0.00 | 81 | 1016.4 |
| 20260505072952 | 50 | 337 | 4.3 | 10.4 | 0.00 | 0.00 | 0.00 | 82 | 1016.3 |
| 20260505071952 | 50 | 338 | 4.3 | 9.6 | 0.00 | 0.00 | 0.00 | 82 | 1016.4 |
| 20260505070952 | 49 | 318 | 4.3 | 8.7 | 0.00 | 0.00 | 0.00 | 84 | 1016.4 |
| 20260505065952 | 49 | 308 | 5.2 | 10.4 | 0.00 | 0.00 | 0.00 | 85 | 1016.4 |
| 20260505064952 | 48 | 311 | 6.1 | 9.6 | 0.00 | 0.00 | 0.00 | 85 | 1016.2 |
| 20260505063952 | 48 | 309 | 6.1 | 9.6 | 0.00 | 0.00 | 0.00 | 86 | 1016.3 |
| 20260505062952 | 48 | 315 | 3.5 | 7.0 | 0.00 | 0.00 | 0.00 | 87 | 1016.3 |
| 20260505061952 | 47 | 305 | 6.1 | 10.4 | 0.00 | 0.00 | 0.00 | 88 | 1016.3 |
| 20260505060952 | 47 | 311 | 6.1 | 10.4 | 0.00 | 0.00 | 0.00 | 88 | 1016.2 |
| 20260505055952 | 47 | 311 | 5.2 | 10.4 | 0.00 | 0.00 | 0.00 | 88 | 1016.2 |
| 20260505054951 | 47 | 304 | 6.1 | 9.6 | 0.00 | 0.00 | 0.00 | 87 | 1016.2 |
| 20260505053951 | 47 | 311 | 5.2 | 8.7 | 0.00 | 0.00 | 0.00 | 86 | 1016.2 |
| 20260505052951 | 47 | 321 | 3.5 | 8.7 | 0.00 | 0.00 | 0.00 | 85 | 1016.2 |